Location: Unspecified
(35.6895°N, 139.6917°E)
Time: 02:21:28
(UTC+00:00)

ASTRO H - Pass Details

Date: 05 October 2021
Orbit: 561 x 579 km, 31.0° (Epoch: 22 October)

Event Time Altitude Azimuth Distance (km) Brightness Sun altitude
Rises 10:59:41 0° 254° (WSW) 2,734 ? -32.9°
Reaches altitude 10° 11:02:02 10° 248° (WSW) 1,838 ? -33.3°
Enters shadow 11:02:26 12° 246° (WSW) 1,694 ? -33.4°
